Вернуться в каталог

USA 157

АктивенВоенныеGEO
NORAD 26715·PAYLOAD·🇺🇸 United States

Запущен Feb 27, 2001 с Cape Canaveral Space Force Station

Loading…

TLE

СвежийSource: Space-Track

Эпоха: Sep 14, 2026, 13:18 UTC

1 26715U 01009A   26257.55454194  .00000103  00000-0  00000-0 0  9994
2 26715  11.6414  19.1890 0042502 180.4394 203.5787  1.00277947 33847

Отслеживайте USA 157 в реальном времени с AllMySat

Download on the App Store